| time (UTC) | temp F | wind direction | speed MPH | gust MPH | rain 1hr in | rain 24hr in | rain mn in | humidity % | barometer mb |
| 20260510213532 | 44 | 274 | 10.0 | 16.0 | 0.00 | 0.00 | 0.00 | 70 | 1018.7 |
| 20260510213032 | 44 | 288 | 12.0 | 16.0 | 0.00 | 0.00 | 0.00 | 69 | 1018.6 |
| 20260510213004 | 44 | 306 | 12.0 | 17.0 | 0.00 | 0.00 | 0.00 | 68 | 1017.8 |
| 20260510212010 | 43 | 300 | 13.0 | 19.0 | 0.00 | 0.00 | 0.00 | 68 | 1018.5 |
| 20260510211510 | 44 | 294 | 13.0 | 21.0 | 0.00 | 0.00 | 0.00 | 68 | 1018.5 |
| 20260510211506 | 44 | 298 | 14.0 | 22.0 | 0.00 | 0.00 | 0.00 | 67 | 1017.2 |
| 20260510211010 | 44 | 298 | 14.0 | 21.0 | 0.00 | 0.00 | 0.00 | 67 | 1018.4 |
| 20260510210013 | 46 | 294 | 11.0 | 22.0 | 0.00 | 0.00 | 0.00 | 61 | 1018.3 |
| 20260510210010 | 46 | 306 | 12.0 | 23.0 | 0.00 | 0.00 | 0.00 | 60 | 1017.0 |
| 20260510205021 | 45 | 292 | 14.0 | 18.0 | 0.00 | 0.00 | 0.00 | 65 | 1018.1 |
| 20260510204521 | 46 | 286 | 11.0 | 18.0 | 0.00 | 0.00 | 0.00 | 59 | 1016.8 |
| 20260510204010 | 47 | 248 | 10.0 | 17.0 | 0.00 | 0.00 | 0.00 | 51 | 1018.1 |
| 20260510203510 | 47 | 276 | 12.0 | 18.0 | 0.00 | 0.00 | 0.00 | 51 | 1018.0 |
| 20260510203011 | 47 | 226 | 10.0 | 18.0 | 0.00 | 0.00 | 0.00 | 52 | 1018.0 |
| 20260510203003 | 47 | 252 | 11.0 | 19.0 | 0.00 | 0.00 | 0.00 | 52 | 1016.8 |
| 20260510202521 | 47 | 294 | 9.0 | 17.0 | 0.00 | 0.00 | 0.00 | 54 | 1018.0 |
| 20260510201533 | 45 | 277 | 13.0 | 17.0 | 0.00 | 0.00 | 0.00 | 66 | 1018.0 |
| 20260510201503 | 45 | 269 | 14.0 | 18.0 | 0.00 | 0.00 | 0.00 | 66 | 1016.8 |
| 20260510201011 | 46 | 290 | 10.0 | 17.0 | 0.00 | 0.00 | 0.00 | 61 | 1018.0 |
| 20260510200522 | 48 | 292 | 13.0 | 18.0 | 0.00 | 0.00 | 0.00 | 50 | 1018.0 |
| 20260510200043 | 48 | 261 | 12.0 | 21.0 | 0.00 | 0.00 | 0.00 | 48 | 1017.8 |
| 20260510200013 | 48 | 271 | 12.0 | 22.0 | 0.00 | 0.00 | 0.00 | 47 | 1016.7 |
| 20260510195010 | 48 | 246 | 12.0 | 18.0 | 0.00 | 0.00 | 0.00 | 48 | 1017.7 |
| 20260510194521 | 48 | 235 | 9.0 | 18.0 | 0.00 | 0.00 | 0.00 | 49 | 1017.6 |
| 20260510194511 | 48 | 245 | 9.0 | 19.0 | 0.00 | 0.00 | 0.00 | 49 | 1016.5 |
| 20260510194011 | 48 | 240 | 11.0 | 20.0 | 0.00 | 0.00 | 0.00 | 50 | 1017.6 |
| 20260510193521 | 48 | 232 | 12.0 | 20.0 | 0.00 | 0.00 | 0.00 | 50 | 1017.6 |
| 20260510193021 | 48 | 259 | 8.0 | 19.0 | 0.00 | 0.00 | 0.00 | 52 | 1017.6 |
| 20260510193016 | 48 | 255 | 8.0 | 20.0 | 0.00 | 0.00 | 0.00 | 52 | 1016.5 |
| 20260510192510 | 48 | 235 | 9.0 | 20.0 | 0.00 | 0.00 | 0.00 | 53 | 1017.5 |
| 20260510192010 | 48 | 217 | 12.0 | 24.0 | 0.00 | 0.00 | 0.00 | 54 | 1017.5 |
| 20260510191520 | 48 | 252 | 14.0 | 25.0 | 0.00 | 0.00 | 0.00 | 52 | 1016.6 |
| 20260510191511 | 48 | 227 | 13.0 | 24.0 | 0.00 | 0.00 | 0.00 | 53 | 1017.5 |
| 20260510191010 | 48 | 244 | 13.0 | 19.0 | 0.00 | 0.00 | 0.00 | 52 | 1017.4 |
| 20260510190021 | 48 | 277 | 14.0 | 23.0 | 0.00 | 0.00 | 0.00 | 52 | 1017.2 |
| 20260510190007 | 48 | 263 | 14.0 | 26.0 | 0.00 | 0.00 | 0.00 | 52 | 1016.4 |
| 20260510185510 | 48 | 232 | 14.0 | 24.0 | 0.00 | 0.00 | 0.00 | 52 | 1017.1 |
| 20260510185032 | 48 | 271 | 17.0 | 25.0 | 0.00 | 0.00 | 0.00 | 51 | 1017.0 |
| 20260510184510 | 49 | 271 | 13.0 | 22.0 | 0.00 | 0.00 | 0.00 | 51 | 1016.8 |
| 20260510184044 | 49 | 242 | 12.0 | 20.0 | 0.00 | 0.00 | 0.00 | 50 | 1016.7 |
| 20260510183510 | 48 | 260 | 14.0 | 20.0 | 0.00 | 0.00 | 0.00 | 50 | 1016.6 |
| 20260510183021 | 47 | 243 | 12.0 | 18.0 | 0.00 | 0.00 | 0.00 | 52 | 1016.5 |
| 20260510183013 | 47 | 235 | 12.0 | 19.0 | 0.00 | 0.00 | 0.00 | 52 | 1016.0 |
| 20260510182521 | 45 | 276 | 9.0 | 18.0 | 0.00 | 0.00 | 0.00 | 68 | 1016.5 |
| 20260510182011 | 45 | 284 | 11.0 | 19.0 | 0.00 | 0.00 | 0.00 | 63 | 1016.4 |
| 20260510181543 | 45 | 301 | 15.0 | 19.0 | 0.00 | 0.00 | 0.00 | 65 | 1016.3 |
| 20260510181524 | 45 | 277 | 15.0 | 20.0 | 0.00 | 0.00 | 0.00 | 64 | 1016.1 |
| 20260510181010 | 44 | 316 | 9.0 | 16.0 | 0.00 | 0.00 | 0.00 | 72 | 1016.3 |
| 20260510180510 | 44 | 310 | 10.0 | 15.0 | 0.00 | 0.00 | 0.00 | 70 | 1016.2 |
| 20260510180024 | 44 | 296 | 11.0 | 16.0 | 0.00 | 0.00 | 0.00 | 71 | 1015.6 |
| 20260510180010 | 44 | 309 | 11.0 | 15.0 | 0.00 | 0.00 | 0.00 | 71 | 1016.2 |
| 20260510175522 | 43 | 307 | 5.0 | 12.0 | 0.00 | 0.00 | 0.00 | 73 | 1016.2 |
| 20260510175010 | 43 | 321 | 8.0 | 12.0 | 0.00 | 0.00 | 0.00 | 72 | 1016.3 |
| 20260510174533 | 43 | 333 | 9.0 | 13.0 | 0.00 | 0.00 | 0.00 | 70 | 1016.2 |
| 20260510174510 | 43 | 340 | 10.0 | 14.0 | 0.00 | 0.00 | 0.00 | 70 | 1014.9 |
| 20260510174022 | 43 | 324 | 9.0 | 13.0 | 0.00 | 0.00 | 0.00 | 70 | 1016.2 |
| 20260510173533 | 42 | 323 | 10.0 | 13.0 | 0.00 | 0.00 | 0.00 | 69 | 1016.2 |
| 20260510173021 | 42 | 338 | 8.0 | 9.0 | 0.00 | 0.00 | 0.00 | 72 | 1016.2 |
| 20260510173011 | 42 | 335 | 8.0 | 10.0 | 0.00 | 0.00 | 0.00 | 71 | 1014.9 |
| 20260510172510 | 42 | 331 | 4.0 | 5.0 | 0.00 | 0.00 | 0.00 | 73 | 1016.2 |
| 20260510172022 | 42 | 331 | 2.0 | 4.0 | 0.00 | 0.00 | 0.00 | 73 | 1016.3 |
| 20260510171514 | 42 | 331 | 1.0 | 3.0 | 0.00 | 0.00 | 0.00 | 71 | 1015.1 |
| 20260510171010 | 42 | 331 | 2.0 | 5.0 | 0.00 | 0.00 | 0.00 | 71 | 1016.4 |
| 20260510170522 | 42 | 331 | 3.0 | 5.0 | 0.00 | 0.00 | 0.00 | 70 | 1016.4 |
| 20260510170010 | 42 | 309 | 3.0 | 6.0 | 0.00 | 0.00 | 0.00 | 70 | 1016.5 |
| 20260510170004 | 42 | 309 | 3.0 | 7.0 | 0.00 | 0.00 | 0.00 | 69 | 1015.2 |
| 20260510165510 | 42 | 309 | 4.0 | 6.0 | 0.00 | 0.00 | 0.00 | 71 | 1016.4 |
| 20260510164510 | 41 | 315 | 4.0 | 7.0 | 0.00 | 0.00 | 0.00 | 72 | 1016.3 |
| 20260510164502 | 41 | 315 | 4.0 | 9.0 | 0.00 | 0.00 | 0.00 | 72 | 1015.1 |
| 20260510163510 | 41 | 305 | 6.0 | 9.0 | 0.00 | 0.00 | 0.00 | 73 | 1016.4 |
| 20260510163010 | 41 | 339 | 6.0 | 9.0 | 0.00 | 0.00 | 0.00 | 73 | 1016.4 |
| 20260510163004 | 41 | 336 | 5.0 | 10.0 | 0.00 | 0.00 | 0.00 | 73 | 1015.1 |
| 20260510162532 | 42 | 331 | 6.0 | 9.0 | 0.00 | 0.00 | 0.00 | 73 | 1016.4 |
| 20260510162010 | 41 | 338 | 5.0 | 10.0 | 0.00 | 0.00 | 0.00 | 75 | 1016.4 |
| 20260510161510 | 41 | 342 | 8.0 | 11.0 | 0.00 | 0.00 | 0.00 | 73 | 1016.3 |
| 20260510161502 | 41 | 321 | 8.0 | 12.0 | 0.00 | 0.00 | 0.00 | 73 | 1015.2 |
| 20260510161021 | 41 | 325 | 7.0 | 11.0 | 0.00 | 0.00 | 0.00 | 74 | 1016.3 |
| 20260510160510 | 42 | 332 | 8.0 | 11.0 | 0.00 | 0.00 | 0.00 | 74 | 1016.3 |
| 20260510160022 | 42 | 337 | 8.0 | 11.0 | 0.00 | 0.00 | 0.00 | 73 | 1016.3 |
| 20260510160009 | 42 | 336 | 9.0 | 12.0 | 0.00 | 0.00 | 0.00 | 73 | 1015.2 |
| 20260510155532 | 42 | 325 | 8.0 | 11.0 | 0.00 | 0.00 | 0.00 | 74 | 1016.2 |
| 20260510154543 | 43 | 325 | 8.0 | 12.0 | 0.00 | 0.00 | 0.00 | 74 | 1016.2 |
| 20260510154502 | 43 | 317 | 9.0 | 13.0 | 0.00 | 0.00 | 0.00 | 73 | 1015.1 |
| 20260510154023 | 43 | 307 | 7.0 | 11.0 | 0.00 | 0.00 | 0.00 | 75 | 1016.1 |
| 20260510153522 | 42 | 341 | 7.0 | 12.0 | 0.00 | 0.00 | 0.00 | 75 | 1016.0 |
| 20260510153033 | 42 | 319 | 8.0 | 11.0 | 0.00 | 0.00 | 0.00 | 75 | 1015.9 |
| 20260510153003 | 42 | 327 | 8.0 | 12.0 | 0.00 | 0.00 | 0.00 | 74 | 1014.9 |
| 20260510152521 | 42 | 315 | 7.0 | 11.0 | 0.00 | 0.00 | 0.00 | 74 | 1015.9 |
| 20260510152021 | 42 | 322 | 7.0 | 12.0 | 0.00 | 0.00 | 0.00 | 76 | 1015.9 |
| 20260510151511 | 42 | 313 | 7.0 | 12.0 | 0.00 | 0.00 | 0.00 | 75 | 1015.8 |
| 20260510151503 | 42 | 333 | 7.0 | 13.0 | 0.00 | 0.00 | 0.00 | 75 | 1014.9 |
| 20260510151010 | 42 | 322 | 7.0 | 11.0 | 0.00 | 0.00 | 0.00 | 75 | 1015.8 |
| 20260510150510 | 42 | 324 | 7.0 | 14.0 | 0.00 | 0.00 | 0.00 | 75 | 1015.7 |
| 20260510150021 | 41 | 316 | 11.0 | 14.0 | 0.00 | 0.00 | 0.00 | 74 | 1015.7 |
| 20260510150003 | 41 | 311 | 12.0 | 15.0 | 0.00 | 0.00 | 0.00 | 73 | 1014.8 |
| 20260510145533 | 42 | 311 | 11.0 | 14.0 | 0.00 | 0.00 | 0.00 | 74 | 1015.8 |
| 20260510145011 | 42 | 306 | 10.0 | 16.0 | 0.00 | 0.00 | 0.00 | 73 | 1015.7 |
| 20260510144511 | 42 | 306 | 10.0 | 16.0 | 0.00 | 0.00 | 0.00 | 72 | 1015.6 |
| 20260510144505 | 42 | 330 | 10.0 | 17.0 | 0.00 | 0.00 | 0.00 | 72 | 1014.7 |
| 20260510144010 | 42 | 317 | 10.0 | 15.0 | 0.00 | 0.00 | 0.00 | 73 | 1015.6 |
| 20260510143510 | 42 | 327 | 8.0 | 14.0 | 0.00 | 0.00 | 0.00 | 74 | 1015.6 |
| 20260510143010 | 42 | 310 | 10.0 | 16.0 | 0.00 | 0.00 | 0.00 | 73 | 1015.5 |
| 20260510143008 | 42 | 320 | 10.0 | 17.0 | 0.00 | 0.00 | 0.00 | 72 | 1014.5 |
| 20260510142510 | 42 | 338 | 10.0 | 16.0 | 0.00 | 0.00 | 0.00 | 72 | 1015.4 |
| 20260510142010 | 42 | 329 | 11.0 | 16.0 | 0.00 | 0.00 | 0.00 | 72 | 1015.5 |
| 20260510141507 | 42 | 321 | 11.0 | 17.0 | 0.00 | 0.00 | 0.00 | 69 | 1014.4 |
| 20260510141021 | 42 | 323 | 10.0 | 14.0 | 0.00 | 0.00 | 0.00 | 71 | 1015.5 |
| 20260510140010 | 42 | 329 | 10.0 | 15.0 | 0.00 | 0.00 | 0.00 | 71 | 1015.5 |
| 20260510140004 | 42 | 325 | 10.0 | 16.0 | 0.00 | 0.00 | 0.00 | 71 | 1014.4 |
| 20260510135544 | 42 | 302 | 11.0 | 15.0 | 0.00 | 0.00 | 0.00 | 71 | 1015.5 |
| 20260510135010 | 42 | 317 | 10.0 | 17.0 | 0.00 | 0.00 | 0.00 | 71 | 1015.4 |
| 20260510134522 | 42 | 295 | 12.0 | 17.0 | 0.00 | 0.00 | 0.00 | 70 | 1015.4 |
| 20260510134504 | 42 | 321 | 13.0 | 18.0 | 0.00 | 0.00 | 0.00 | 69 | 1014.4 |
| 20260510134011 | 42 | 306 | 10.0 | 16.0 | 0.00 | 0.00 | 0.00 | 69 | 1015.3 |
| 20260510133510 | 42 | 302 | 11.0 | 16.0 | 0.00 | 0.00 | 0.00 | 68 | 1015.4 |
| 20260510133010 | 42 | 323 | 11.0 | 17.0 | 0.00 | 0.00 | 0.00 | 68 | 1015.4 |
| 20260510133003 | 42 | 297 | 11.0 | 18.0 | 0.00 | 0.00 | 0.00 | 68 | 1014.4 |
| 20260510132511 | 42 | 313 | 11.0 | 17.0 | 0.00 | 0.00 | 0.00 | 65 | 1015.4 |
| 20260510132010 | 42 | 312 | 12.0 | 17.0 | 0.00 | 0.00 | 0.00 | 65 | 1015.3 |
| 20260510131505 | 42 | 303 | 13.0 | 22.0 | 0.00 | 0.00 | 0.00 | 63 | 1014.3 |
| 20260510131010 | 42 | 268 | 14.0 | 21.0 | 0.00 | 0.00 | 0.00 | 60 | 1015.2 |
| 20260510130533 | 42 | 288 | 15.0 | 20.0 | 0.00 | 0.00 | 0.00 | 63 | 1015.2 |
| 20260510130009 | 42 | 289 | 13.0 | 21.0 | 0.00 | 0.00 | 0.00 | 61 | 1014.1 |
| 20260510125521 | 42 | 265 | 15.0 | 20.0 | 0.00 | 0.00 | 0.00 | 60 | 1015.1 |
| 20260510125022 | 42 | 278 | 9.0 | 18.0 | 0.00 | 0.00 | 0.00 | 60 | 1014.9 |
| 20260510124544 | 42 | 250 | 12.0 | 18.0 | 0.00 | 0.00 | 0.00 | 61 | 1015.0 |
| 20260510124506 | 42 | 269 | 12.0 | 19.0 | 0.00 | 0.00 | 0.00 | 60 | 1014.0 |
| 20260510124011 | 42 | 273 | 11.0 | 17.0 | 0.00 | 0.00 | 0.00 | 62 | 1014.9 |
| 20260510123532 | 42 | 306 | 12.0 | 16.0 | 0.00 | 0.00 | 0.00 | 62 | 1014.8 |
| 20260510123022 | 42 | 274 | 10.0 | 20.0 | 0.00 | 0.00 | 0.00 | 64 | 1014.8 |
| 20260510123007 | 42 | 266 | 11.0 | 21.0 | 0.00 | 0.00 | 0.00 | 64 | 1013.9 |
| 20260510122510 | 41 | 283 | 10.0 | 20.0 | 0.00 | 0.00 | 0.00 | 65 | 1014.7 |
| 20260510121522 | 41 | 250 | 11.0 | 16.0 | 0.00 | 0.00 | 0.00 | 68 | 1014.7 |
| 20260510121503 | 41 | 256 | 11.0 | 17.0 | 0.00 | 0.00 | 0.00 | 67 | 1013.7 |
| 20260510120521 | 40 | 242 | 9.0 | 14.0 | 0.00 | 0.00 | 0.00 | 70 | 1014.5 |
| 20260510120044 | 40 | 261 | 9.0 | 18.0 | 0.00 | 0.00 | 0.00 | 71 | 1014.3 |
| 20260510120004 | 40 | 227 | 9.0 | 19.0 | 0.00 | 0.00 | 0.00 | 71 | 1013.4 |
| 20260510114511 | 39 | 250 | 11.0 | 14.0 | 0.00 | 0.00 | 0.00 | 74 | 1014.3 |
| 20260510114507 | 39 | 242 | 12.0 | 15.0 | 0.00 | 0.00 | 0.00 | 73 | 1013.3 |
| 20260510114011 | 39 | 267 | 8.0 | 14.0 | 0.00 | 0.00 | 0.00 | 74 | 1014.2 |
| 20260510113533 | 39 | 226 | 7.0 | 14.0 | 0.00 | 0.00 | 0.00 | 75 | 1014.1 |
| 20260510113011 | 39 | 255 | 7.0 | 12.0 | 0.00 | 0.00 | 0.00 | 75 | 1013.9 |
| 20260510113003 | 39 | 257 | 7.0 | 15.0 | 0.00 | 0.00 | 0.00 | 75 | 1013.0 |
| 20260510112533 | 38 | 253 | 6.0 | 14.0 | 0.00 | 0.00 | 0.00 | 75 | 1013.9 |
| 20260510112022 | 38 | 221 | 9.0 | 14.0 | 0.00 | 0.00 | 0.00 | 76 | 1013.8 |
| 20260510111512 | 38 | 251 | 6.0 | 11.0 | 0.00 | 0.00 | 0.00 | 76 | 1013.8 |
| 20260510111504 | 38 | 250 | 6.0 | 12.0 | 0.00 | 0.00 | 0.00 | 75 | 1012.8 |
| 20260510111010 | 38 | 233 | 7.0 | 10.0 | 0.00 | 0.00 | 0.00 | 76 | 1013.7 |
| 20260510110511 | 37 | 239 | 7.0 | 9.0 | 0.00 | 0.00 | 0.00 | 76 | 1013.6 |
| 20260510110008 | 37 | 229 | 5.0 | 11.0 | 0.00 | 0.00 | 0.00 | 76 | 1012.5 |
| 20260510105533 | 37 | 223 | 5.0 | 9.0 | 0.00 | 0.00 | 0.00 | 76 | 1013.4 |
| 20260510105011 | 37 | 248 | 5.0 | 9.0 | 0.00 | 0.00 | 0.00 | 76 | 1013.3 |
| 20260510104514 | 37 | 250 | 5.0 | 10.0 | 0.00 | 0.00 | 0.00 | 76 | 1012.7 |
| 20260510104511 | 37 | 201 | 5.0 | 9.0 | 0.00 | 0.00 | 0.00 | 76 | 1013.2 |
| 20260510104044 | 37 | 224 | 6.0 | 9.0 | 0.00 | 0.00 | 0.00 | 76 | 1013.1 |
| 20260510103022 | 37 | 240 | 6.0 | 10.0 | 0.00 | 0.00 | 0.00 | 76 | 1013.0 |
| 20260510103011 | 37 | 245 | 6.0 | 11.0 | 0.00 | 0.00 | 0.00 | 76 | 1012.0 |
| 20260510102011 | 37 | 234 | 6.0 | 11.0 | 0.00 | 0.00 | 0.00 | 76 | 1012.8 |
| 20260510101511 | 37 | 239 | 6.0 | 9.0 | 0.00 | 0.00 | 0.00 | 76 | 1012.8 |
| 20260510101508 | 37 | 250 | 6.0 | 10.0 | 0.00 | 0.00 | 0.00 | 76 | 1011.5 |
| 20260510101011 | 37 | 217 | 6.0 | 9.0 | 0.00 | 0.00 | 0.00 | 76 | 1012.7 |
| 20260510100522 | 37 | 249 | 5.0 | 10.0 | 0.00 | 0.00 | 0.00 | 76 | 1012.7 |
| 20260510100033 | 37 | 230 | 5.0 | 10.0 | 0.00 | 0.00 | 0.00 | 76 | 1012.6 |
| 20260510100008 | 37 | 248 | 5.0 | 11.0 | 0.00 | 0.00 | 0.00 | 75 | 1011.3 |
| 20260510095511 | 37 | 238 | 6.0 | 9.0 | 0.00 | 0.00 | 0.00 | 76 | 1012.6 |
| 20260510095022 | 37 | 231 | 5.0 | 9.0 | 0.00 | 0.00 | 0.00 | 75 | 1012.5 |
| 20260510094510 | 37 | 230 | 6.0 | 9.0 | 0.00 | 0.00 | 0.00 | 75 | 1012.5 |
| 20260510094044 | 37 | 240 | 6.0 | 11.0 | 0.00 | 0.00 | 0.00 | 75 | 1012.4 |
| 20260510093522 | 37 | 231 | 7.0 | 13.0 | 0.00 | 0.00 | 0.00 | 74 | 1012.4 |
| 20260510093033 | 37 | 237 | 9.0 | 13.0 | 0.00 | 0.00 | 0.00 | 74 | 1012.3 |
| 20260510093008 | 37 | 254 | 9.0 | 14.0 | 0.00 | 0.00 | 0.00 | 74 | 1011.4 |
| 20260510092522 | 37 | 257 | 8.0 | 13.0 | 0.00 | 0.00 | 0.00 | 74 | 1012.3 |
| 20260510092011 | 37 | 230 | 8.0 | 12.0 | 0.00 | 0.00 | 0.00 | 74 | 1012.2 |
| 20260510091511 | 37 | 252 | 7.0 | 13.0 | 0.00 | 0.00 | 0.00 | 73 | 1011.7 |
| 20260510091011 | 37 | 253 | 8.0 | 12.0 | 0.00 | 0.00 | 0.00 | 74 | 1012.1 |
| 20260510090522 | 37 | 268 | 7.0 | 11.0 | 0.00 | 0.00 | 0.00 | 74 | 1012.0 |
| 20260510090022 | 37 | 237 | 7.0 | 11.0 | 0.00 | 0.00 | 0.00 | 73 | 1011.9 |
| 20260510090010 | 37 | 229 | 7.0 | 12.0 | 0.00 | 0.00 | 0.00 | 73 | 1011.3 |
| 20260510085544 | 37 | 214 | 6.0 | 11.0 | 0.00 | 0.00 | 0.00 | 73 | 1011.9 |
| 20260510085022 | 37 | 239 | 6.0 | 11.0 | 0.00 | 0.00 | 0.00 | 73 | 1011.8 |
| 20260510084511 | 37 | 236 | 6.0 | 10.0 | 0.00 | 0.00 | 0.00 | 73 | 1011.8 |
| 20260510084509 | 37 | 238 | 6.0 | 11.0 | 0.00 | 0.00 | 0.00 | 72 | 1010.6 |
| 20260510084011 | 37 | 230 | 7.0 | 10.0 | 0.00 | 0.00 | 0.00 | 72 | 1011.7 |
| 20260510083544 | 37 | 209 | 7.0 | 11.0 | 0.00 | 0.00 | 0.00 | 72 | 1011.5 |
| 20260510083022 | 37 | 215 | 8.0 | 11.0 | 0.00 | 0.00 | 0.00 | 73 | 1011.4 |
| 20260510083008 | 37 | 235 | 8.0 | 12.0 | 0.00 | 0.00 | 0.00 | 72 | 1010.0 |
| 20260510082522 | 37 | 228 | 6.0 | 10.0 | 0.00 | 0.00 | 0.00 | 73 | 1011.4 |
| 20260510082011 | 37 | 211 | 7.0 | 10.0 | 0.00 | 0.00 | 0.00 | 73 | 1011.4 |
| 20260510081528 | 37 | 217 | 6.0 | 10.0 | 0.00 | 0.00 | 0.00 | 72 | 1009.9 |
| 20260510081511 | 37 | 217 | 6.0 | 9.0 | 0.00 | 0.00 | 0.00 | 72 | 1011.4 |
| 20260510081011 | 38 | 223 | 6.0 | 10.0 | 0.00 | 0.00 | 0.00 | 72 | 1011.2 |
| 20260510080545 | 38 | 229 | 6.0 | 9.0 | 0.00 | 0.00 | 0.00 | 72 | 1011.3 |
| 20260510080014 | 38 | 225 | 6.0 | 9.0 | 0.00 | 0.00 | 0.00 | 71 | 1011.1 |
| 20260510080002 | 38 | 224 | 6.0 | 10.0 | 0.00 | 0.00 | 0.00 | 71 | 1009.9 |
| 20260510075511 | 38 | 209 | 7.0 | 10.0 | 0.00 | 0.00 | 0.00 | 71 | 1011.0 |
| 20260510074522 | 38 | 228 | 6.0 | 11.0 | 0.00 | 0.00 | 0.00 | 71 | 1011.0 |
| 20260510074503 | 38 | 240 | 6.0 | 12.0 | 0.00 | 0.00 | 0.00 | 70 | 1010.1 |
| 20260510074011 | 38 | 199 | 6.0 | 10.0 | 0.00 | 0.00 | 0.00 | 71 | 1011.0 |
| 20260510073522 | 38 | 240 | 6.0 | 9.0 | 0.00 | 0.00 | 0.00 | 70 | 1011.0 |
| 20260510073001 | 38 | 238 | 5.0 | 9.0 | 0.00 | 0.00 | 0.00 | 70 | 1010.5 |
| 20260510072546 | 38 | 236 | 5.0 | 8.0 | 0.00 | 0.00 | 0.00 | 70 | 1010.8 |
| 20260510072011 | 39 | 236 | 5.0 | 10.0 | 0.00 | 0.00 | 0.00 | 69 | 1010.7 |
| 20260510071511 | 39 | 209 | 6.0 | 10.0 | 0.00 | 0.00 | 0.00 | 69 | 1010.7 |
| 20260510071502 | 39 | 236 | 6.0 | 11.0 | 0.00 | 0.00 | 0.00 | 69 | 1010.1 |
| 20260510071044 | 39 | 221 | 7.0 | 10.0 | 0.00 | 0.00 | 0.00 | 69 | 1010.7 |
| 20260510070511 | 39 | 228 | 7.0 | 10.0 | 0.00 | 0.00 | 0.00 | 69 | 1010.6 |
| 20260510070011 | 39 | 227 | 6.0 | 11.0 | 0.00 | 0.00 | 0.00 | 69 | 1010.6 |
| 20260510070003 | 39 | 228 | 6.0 | 12.0 | 0.00 | 0.00 | 0.00 | 68 | 1009.8 |
| 20260510065533 | 40 | 238 | 7.0 | 11.0 | 0.00 | 0.00 | 0.00 | 68 | 1010.6 |
| 20260510065033 | 40 | 255 | 7.0 | 11.0 | 0.00 | 0.00 | 0.00 | 68 | 1010.4 |
| 20260510064511 | 40 | 249 | 7.0 | 12.0 | 0.00 | 0.00 | 0.00 | 67 | 1010.4 |
| 20260510064503 | 40 | 239 | 7.0 | 13.0 | 0.00 | 0.00 | 0.00 | 67 | 1008.9 |
| 20260510064033 | 40 | 277 | 9.0 | 14.0 | 0.00 | 0.00 | 0.00 | 67 | 1010.3 |
| 20260510063511 | 40 | 259 | 9.0 | 14.0 | 0.00 | 0.00 | 0.00 | 66 | 1010.3 |
| 20260510063011 | 40 | 261 | 9.0 | 13.0 | 0.00 | 0.00 | 0.00 | 66 | 1010.3 |
| 20260510063006 | 40 | 259 | 10.0 | 14.0 | 0.00 | 0.00 | 0.00 | 65 | 1008.8 |
| 20260510062522 | 41 | 263 | 9.0 | 14.0 | 0.00 | 0.00 | 0.00 | 65 | 1010.3 |
| 20260510062022 | 41 | 253 | 9.0 | 17.0 | 0.00 | 0.00 | 0.00 | 65 | 1010.2 |
| 20260510061511 | 41 | 267 | 9.0 | 17.0 | 0.00 | 0.00 | 0.00 | 64 | 1010.2 |
| 20260510061501 | 41 | 261 | 10.0 | 18.0 | 0.00 | 0.00 | 0.00 | 64 | 1008.9 |
| 20260510060523 | 41 | 270 | 10.0 | 19.0 | 0.00 | 0.00 | 0.00 | 63 | 1010.2 |
| 20260510060011 | 41 | 261 | 13.0 | 20.0 | 0.00 | 0.00 | 0.00 | 62 | 1010.2 |
| 20260510060005 | 41 | 261 | 13.0 | 21.0 | 0.00 | 0.00 | 0.00 | 61 | 1008.8 |
| 20260510055522 | 41 | 286 | 13.0 | 18.0 | 0.00 | 0.00 | 0.00 | 62 | 1010.2 |
| 20260510055011 | 41 | 269 | 13.0 | 23.0 | 0.00 | 0.00 | 0.00 | 62 | 1010.2 |
| 20260510054512 | 42 | 275 | 14.0 | 23.0 | 0.00 | 0.00 | 0.00 | 61 | 1010.1 |
| 20260510054503 | 42 | 294 | 15.0 | 25.0 | 0.00 | 0.00 | 0.00 | 61 | 1009.1 |
| 20260510054011 | 42 | 261 | 15.0 | 25.0 | 0.00 | 0.00 | 0.00 | 60 | 1010.0 |
| 20260510053511 | 42 | 286 | 15.0 | 25.0 | 0.00 | 0.00 | 0.00 | 60 | 1009.9 |
| 20260510053011 | 42 | 274 | 15.0 | 21.0 | 0.00 | 0.00 | 0.00 | 60 | 1009.9 |
| 20260510053003 | 42 | 277 | 16.0 | 23.0 | 0.00 | 0.00 | 0.00 | 59 | 1009.2 |
| 20260510052522 | 42 | 261 | 15.0 | 22.0 | 0.00 | 0.00 | 0.00 | 59 | 1009.8 |
| 20260510052022 | 42 | 281 | 16.0 | 22.0 | 0.00 | 0.00 | 0.00 | 59 | 1009.8 |
| 20260510051509 | 42 | 286 | 15.0 | 24.0 | 0.00 | 0.00 | 0.00 | 60 | 1009.2 |
| 20260510050522 | 42 | 272 | 14.0 | 20.0 | 0.00 | 0.00 | 0.00 | 61 | 1009.7 |
| 20260510050002 | 42 | 282 | 15.0 | 21.0 | 0.00 | 0.00 | 0.00 | 59 | 1009.2 |
| 20260510045045 | 42 | 262 | 15.0 | 22.0 | 0.00 | 0.00 | 0.00 | 60 | 1009.6 |
| 20260510044523 | 42 | 251 | 14.0 | 23.0 | 0.00 | 0.00 | 0.00 | 59 | 1009.6 |
| 20260510044508 | 42 | 272 | 14.0 | 30.0 | 0.00 | 0.00 | 0.00 | 58 | 1008.8 |
| 20260510044044 | 42 | 253 | 17.0 | 28.0 | 0.00 | 0.00 | 0.00 | 59 | 1009.4 |
| 20260510043512 | 42 | 271 | 16.0 | 26.0 | 0.00 | 0.00 | 0.00 | 59 | 1009.4 |
| 20260510043011 | 42 | 265 | 16.0 | 24.0 | 0.00 | 0.00 | 0.00 | 59 | 1009.4 |
| 20260510042511 | 42 | 259 | 12.0 | 20.0 | 0.00 | 0.00 | 0.00 | 59 | 1009.4 |
| 20260510041545 | 42 | 265 | 15.0 | 23.0 | 0.00 | 0.00 | 0.00 | 62 | 1009.3 |
| 20260510041503 | 42 | 279 | 16.0 | 25.0 | 0.00 | 0.00 | 0.00 | 61 | 1007.6 |
| 20260510041023 | 42 | 272 | 17.0 | 23.0 | 0.00 | 0.00 | 0.00 | 65 | 1009.1 |
| 20260510040522 | 42 | 300 | 16.0 | 25.0 | 0.00 | 0.00 | 0.00 | 66 | 1008.9 |
| 20260510040011 | 42 | 301 | 18.0 | 25.0 | 0.00 | 0.00 | 0.00 | 63 | 1008.9 |
| 20260510040008 | 42 | 303 | 18.0 | 27.0 | 0.00 | 0.00 | 0.00 | 62 | 1007.5 |
| 20260510035522 | 42 | 287 | 17.0 | 25.0 | 0.00 | 0.00 | 0.00 | 58 | 1009.0 |
| 20260510034512 | 42 | 284 | 17.0 | 22.0 | 0.00 | 0.00 | 0.00 | 58 | 1007.6 |
| 20260510034011 | 42 | 269 | 10.0 | 18.0 | 0.00 | 0.00 | 0.00 | 61 | 1008.9 |
| 20260510033523 | 42 | 261 | 11.0 | 21.0 | 0.00 | 0.00 | 0.00 | 62 | 1009.0 |
| 20260510033011 | 42 | 242 | 7.0 | 15.0 | 0.00 | 0.00 | 0.00 | 64 | 1008.9 |
| 20260510033003 | 42 | 260 | 8.0 | 16.0 | 0.00 | 0.00 | 0.00 | 63 | 1007.7 |
| 20260510032511 | 42 | 266 | 9.0 | 15.0 | 0.00 | 0.00 | 0.00 | 64 | 1008.9 |
| 20260510032034 | 43 | 263 | 8.0 | 17.0 | 0.00 | 0.00 | 0.00 | 63 | 1008.8 |
| 20260510031523 | 43 | 302 | 10.0 | 19.0 | 0.00 | 0.00 | 0.00 | 63 | 1008.9 |
| 20260510031504 | 43 | 279 | 11.0 | 20.0 | 0.00 | 0.00 | 0.00 | 63 | 1007.9 |
| 20260510030511 | 43 | 264 | 11.0 | 17.0 | 0.00 | 0.00 | 0.00 | 63 | 1008.8 |
| 20260510030011 | 43 | 286 | 10.0 | 18.0 | 0.00 | 0.00 | 0.00 | 63 | 1008.8 |
| 20260510025523 | 43 | 263 | 12.0 | 18.0 | 0.00 | 0.00 | 0.00 | 63 | 1008.8 |
| 20260510025012 | 44 | 265 | 13.0 | 19.0 | 0.00 | 0.00 | 0.00 | 62 | 1008.8 |
| 20260510024510 | 44 | 265 | 14.0 | 19.0 | 0.00 | 0.00 | 0.00 | 61 | 1008.3 |
| 20260510023522 | 44 | 275 | 11.0 | 16.0 | 0.00 | 0.00 | 0.00 | 60 | 1008.7 |
| 20260510023045 | 44 | 274 | 11.0 | 20.0 | 0.00 | 0.00 | 0.00 | 60 | 1008.5 |
| 20260510023014 | 44 | 278 | 11.0 | 21.0 | 0.00 | 0.00 | 0.00 | 59 | 1007.9 |
| 20260510022511 | 44 | 277 | 9.0 | 18.0 | 0.00 | 0.00 | 0.00 | 60 | 1008.5 |
| 20260510022011 | 44 | 271 | 10.0 | 20.0 | 0.00 | 0.00 | 0.00 | 60 | 1008.5 |
| 20260510021509 | 44 | 232 | 10.0 | 16.0 | 0.00 | 0.00 | 0.00 | 60 | 1006.9 |
| 20260510021011 | 44 | 250 | 8.0 | 12.0 | 0.00 | 0.00 | 0.00 | 62 | 1008.2 |
| 20260510020534 | 44 | 246 | 7.0 | 14.0 | 0.00 | 0.00 | 0.00 | 62 | 1008.1 |
| 20260510020012 | 44 | 273 | 9.0 | 16.0 | 0.00 | 0.00 | 0.00 | 62 | 1007.9 |
| 20260510020004 | 44 | 259 | 9.0 | 17.0 | 0.00 | 0.00 | 0.00 | 62 | 1006.5 |
| 20260510015511 | 44 | 268 | 10.0 | 17.0 | 0.00 | 0.00 | 0.00 | 62 | 1007.8 |
| 20260510015011 | 45 | 271 | 12.0 | 17.0 | 0.00 | 0.00 | 0.00 | 62 | 1007.6 |
| 20260510014523 | 45 | 258 | 12.0 | 22.0 | 0.00 | 0.00 | 0.00 | 63 | 1007.5 |
| 20260510014506 | 45 | 251 | 12.0 | 24.0 | 0.00 | 0.00 | 0.00 | 62 | 1006.2 |
| 20260510014012 | 45 | 282 | 15.0 | 23.0 | 0.00 | 0.00 | 0.00 | 62 | 1007.4 |
| 20260510013512 | 45 | 273 | 16.0 | 23.0 | 0.00 | 0.00 | 0.00 | 62 | 1007.3 |
| 20260510013011 | 45 | 274 | 14.0 | 21.0 | 0.00 | 0.00 | 0.00 | 61 | 1007.1 |
| 20260510013002 | 45 | 294 | 15.0 | 23.0 | 0.00 | 0.00 | 0.00 | 61 | 1006.0 |
| 20260510012511 | 45 | 268 | 15.0 | 21.0 | 0.00 | 0.00 | 0.00 | 62 | 1007.0 |
| 20260510012034 | 45 | 299 | 14.0 | 21.0 | 0.00 | 0.00 | 0.00 | 63 | 1007.0 |
| 20260510011512 | 45 | 290 | 15.0 | 21.0 | 0.00 | 0.00 | 0.00 | 63 | 1006.9 |
| 20260510011505 | 45 | 256 | 15.0 | 23.0 | 0.00 | 0.00 | 0.00 | 63 | 1005.7 |
| 20260510011023 | 45 | 269 | 15.0 | 21.0 | 0.00 | 0.00 | 0.00 | 63 | 1006.9 |
| 20260510010012 | 45 | 265 | 14.0 | 20.0 | 0.00 | 0.00 | 0.00 | 65 | 1006.8 |
| 20260510010003 | 45 | 286 | 14.0 | 24.0 | 0.00 | 0.00 | 0.00 | 64 | 1005.8 |
| 20260510005512 | 45 | 262 | 15.0 | 22.0 | 0.00 | 0.00 | 0.00 | 65 | 1006.7 |
| 20260510005012 | 45 | 296 | 15.0 | 22.0 | 0.00 | 0.00 | 0.00 | 67 | 1006.6 |
| 20260510004522 | 45 | 292 | 17.0 | 22.0 | 0.00 | 0.00 | 0.00 | 71 | 1006.6 |
| 20260510004504 | 45 | 279 | 18.0 | 25.0 | 0.00 | 0.00 | 0.00 | 70 | 1005.9 |
| 20260510004034 | 45 | 282 | 15.0 | 23.0 | 0.00 | 0.00 | 0.00 | 68 | 1006.4 |
| 20260510003512 | 45 | 275 | 17.0 | 26.0 | 0.00 | 0.00 | 0.00 | 71 | 1006.2 |
| 20260510003011 | 45 | 289 | 17.0 | 29.0 | 0.00 | 0.00 | 0.00 | 71 | 1006.1 |
| 20260510002512 | 45 | 289 | 20.0 | 29.0 | 0.00 | 0.00 | 0.00 | 71 | 1006.1 |
| 20260510002045 | 45 | 288 | 20.0 | 29.0 | 0.00 | 0.00 | 0.00 | 71 | 1005.9 |
| 20260510001545 | 45 | 275 | 21.0 | 27.0 | 0.00 | 0.00 | 0.00 | 71 | 1005.7 |
| 20260510001506 | 45 | 262 | 21.0 | 29.0 | 0.00 | 0.00 | 0.00 | 71 | 1005.1 |
| 20260510001023 | 45 | 276 | 19.0 | 27.0 | 0.00 | 0.00 | 0.00 | 69 | 1005.6 |
| 20260510000522 | 45 | 275 | 18.0 | 27.0 | 0.00 | 0.00 | 0.00 | 69 | 1005.4 |
| 20260510000011 | 46 | 290 | 19.0 | 29.0 | 0.00 | 0.00 | 0.00 | 68 | 1004.4 |
| 20260509235523 | 46 | 298 | 20.0 | 27.0 | 0.00 | 0.00 | 0.00 | 68 | 1005.2 |
| 20260509235011 | 46 | 275 | 20.0 | 28.0 | 0.00 | 0.00 | 0.00 | 70 | 1005.0 |
| 20260509234523 | 45 | 312 | 19.0 | 29.0 | 0.00 | 0.00 | 0.00 | 72 | 1004.9 |
| 20260509234508 | 45 | 278 | 20.0 | 30.0 | 0.00 | 0.00 | 0.00 | 70 | 1003.5 |
| 20260509234011 | 46 | 288 | 19.0 | 30.0 | 0.00 | 0.00 | 0.00 | 71 | 1004.7 |
| 20260509233512 | 47 | 302 | 22.0 | 30.0 | 0.00 | 0.00 | 0.00 | 69 | 1004.5 |
| 20260509233023 | 47 | 295 | 22.0 | 32.0 | 0.00 | 0.00 | 0.00 | 66 | 1004.5 |
| 20260509233004 | 47 | 286 | 23.0 | 34.0 | 0.00 | 0.00 | 0.00 | 66 | 1003.2 |
| 20260509232512 | 48 | 277 | 22.0 | 33.0 | 0.00 | 0.00 | 0.00 | 62 | 1004.3 |
| 20260509231545 | 49 | 297 | 20.0 | 28.0 | 0.00 | 0.00 | 0.00 | 58 | 1004.0 |
| 20260509231509 | 49 | 294 | 20.0 | 30.0 | 0.00 | 0.00 | 0.00 | 57 | 1002.8 |
| 20260509231023 | 49 | 302 | 21.0 | 28.0 | 0.00 | 0.00 | 0.00 | 55 | 1003.9 |
| 20260509230523 | 53 | 265 | 20.0 | 30.0 | 0.00 | 0.00 | 0.00 | 39 | 1003.7 |
| 20260509230023 | 53 | 259 | 19.0 | 30.0 | 0.00 | 0.00 | 0.00 | 40 | 1003.5 |
| 20260509230003 | 53 | 273 | 20.0 | 32.0 | 0.00 | 0.00 | 0.00 | 39 | 1002.5 |
| 20260509225534 | 53 | 269 | 24.0 | 33.0 | 0.00 | 0.00 | 0.00 | 39 | 1003.5 |
| 20260509225023 | 53 | 262 | 23.0 | 33.0 | 0.00 | 0.00 | 0.00 | 38 | 1003.4 |
| 20260509224545 | 53 | 271 | 23.0 | 32.0 | 0.00 | 0.00 | 0.00 | 40 | 1003.3 |
| 20260509224504 | 53 | 267 | 23.0 | 34.0 | 0.00 | 0.00 | 0.00 | 39 | 1002.2 |
| 20260509224023 | 53 | 290 | 15.0 | 30.0 | 0.00 | 0.00 | 0.00 | 40 | 1003.1 |
| 20260509223512 | 53 | 259 | 19.0 | 32.0 | 0.00 | 0.00 | 0.00 | 37 | 1003.2 |
| 20260509223023 | 53 | 254 | 21.0 | 35.0 | 0.00 | 0.00 | 0.00 | 36 | 1003.0 |
| 20260509223005 | 53 | 275 | 22.0 | 37.0 | 0.00 | 0.00 | 0.00 | 35 | 1001.9 |
| 20260509222512 | 54 | 277 | 23.0 | 35.0 | 0.00 | 0.00 | 0.00 | 35 | 1002.9 |
| 20260509222045 | 54 | 276 | 22.0 | 35.0 | 0.00 | 0.00 | 0.00 | 35 | 1002.9 |
| 20260509221512 | 54 | 282 | 23.0 | 36.0 | 0.00 | 0.00 | 0.00 | 36 | 1002.7 |
| 20260509221510 | 54 | 273 | 24.0 | 38.0 | 0.00 | 0.00 | 0.00 | 36 | 1001.7 |
| 20260509221023 | 54 | 250 | 19.0 | 36.0 | 0.00 | 0.00 | 0.00 | 38 | 1002.5 |
| 20260509220512 | 53 | 284 | 19.0 | 28.0 | 0.00 | 0.00 | 0.00 | 39 | 1002.5 |
| 20260509220014 | 53 | 265 | 17.0 | 26.0 | 0.00 | 0.00 | 0.00 | 43 | 1002.2 |
| 20260509215511 | 52 | 281 | 18.0 | 32.0 | 0.00 | 0.00 | 0.00 | 49 | 1002.2 |
| 20260509215023 | 52 | 294 | 18.0 | 32.0 | 0.00 | 0.00 | 0.00 | 47 | 1002.2 |
| 20260509214512 | 52 | 292 | 17.0 | 29.0 | 0.00 | 0.00 | 0.00 | 48 | 1002.0 |
| 20260509214504 | 51 | 271 | 18.0 | 31.0 | 0.00 | 0.00 | 0.00 | 48 | 1001.8 |